Location: Newark
(7.1028°S, 35.3258°W)
Time: 21:27:05
(UTC+00:00)

Vanguard 3 - Pass Details

Date: 27 February 2020
Orbit: 508 x 3263 km, 33.4° (Epoch: 09 April)

Event Time Altitude Azimuth Distance (km) Brightness Sun altitude
Rises 23:35:41 0° 251° (WSW) 7,227 12.8 -43.0°
Reaches altitude 10° 23:42:25 10° 238° (WSW) 6,169 12.2 -44.6°
Maximum altitude 23:56:36 25° 190° (S) 4,490 11.0 -47.9°
Enters shadow 00:04:12 17° 154° (SSE) 4,453 10.8 -49.6°
